Location: ????????
(60.4333°N, 46.4710°E)
Time: 19:55:12
(UTC+00:00)

Cosmos 1656 Rocket - Pass Details

Date: 25 November 2020
Orbit: 796 x 846 km, 71.1° (Epoch: 17 January)

Event Time Altitude Azimuth Distance (km) Brightness Sun altitude
Rises 15:43:22 0° 320° (NW) 3,420 7.5 -25.7°
Reaches altitude 10° 15:45:50 10° 319° (NW) 2,479 6.7 -26.0°
Maximum altitude 15:51:31 77° 235° (SW) 868 3.7 -26.7°
Enters shadow 15:52:31 61° 169° (S) 956 3.8 -26.8°
